Location: Unspecified
(0.0000°N, 0.0000°E)
Time: 17:27:11
(UTC+00:00)

Tiros 1 despin weight - Pass Details

Date: 22 December 2018
Orbit: 595 x 642 km, 48.2° (Epoch: 18 June)

Event Time Altitude Azimuth Distance (km) Brightness Sun altitude
Rises 18:58:50 0° 244° (WSW) 2,831 ? -13.8°
Reaches altitude 10° 19:01:34 10° 260° (W) 1,922 ? -14.4°
Maximum altitude 19:04:55 21° 310° (NW) 1,337 ? -15.1°
Drops below altitude 10° 19:08:15 10° 359° (N) 1,913 ? -15.9°
Enters shadow 19:08:53 - 5° (N) 2,109 ? -16.1°
